Provo, UT

7:32 PM MST on December 06, 2019 (GMT -0700)
Provo Municipal

Weather History for KPVU - October, 2019

Change the Weather History Date:

Wednesday, October 16, 2019

  Actual Average Record
Temperature  
Mean Temperature 54 °F -  
Max Temperature 77 °F 62 °F 83 °F (1991)
Min Temperature 34 °F 35 °F 27 °F (2017)
Degree Days  
Heating Degree Days 10    
Growing Degree Days 4 (Base 50)    
Moisture  
Dew Point 24 °F    
Average Humidity 36    
Maximum Humidity 62    
Minimum Humidity 10    
Precipitation  
Precipitation 0.00 in - - ()
Sea Level Pressure  
Sea Level Pressure 30.08 in    
Wind  
Wind Speed 3 mph (SE)    
Max Wind Speed 8 mph    
Max Gust Speed -    
Visibility 10 miles    
Events      
Averages and records for this station are not official NWS values.
T = Trace of Precipitation, MM = Missing Value Source: NWS Daily Summary

Daily Weather History Graph

Daily Weather History Graph

Search for Another Location

Airport or City:

Astronomy

Oct. 16, 2019 Rise Set
Actual Time 7:38 AM MDT 6:45 PM MDT
Civil Twilight 7:11 AM MDT 7:13 PM MDT
Nautical Twilight 6:39 AM MDT 7:44 PM MDT
Astronomical Twilight 6:08 AM MDT 8:16 PM MDT
Moon 8:41 PM MDT (10/16) 10:12 AM MDT (10/16)
Length of Visible Light 12h 02m
Length of Day
11h 07m
Waning Gibbous, 92% of the Moon is Illuminated
Oct 16
Waning Gibbous
Oct 21
Last Quarter
Oct 27
New
Nov 4
First Quarter
Nov 12
Full

Hourly Weather History & Observations

Time (MDT) Temp. Windchill Dew Point Humidity Pressure Visibility Wind Dir Wind Speed Gust Speed Precip Events Conditions
12:56 AM 42.1 °F - 25.0 °F 51% 30.20 in 10.0 mi Calm Calm - N/A   Clear
1:56 AM 42.1 °F 39.2 °F 30.0 °F 62% 30.19 in 10.0 mi East 4.6 mph - N/A   Clear
2:56 AM 44.1 °F - 25.0 °F 47% 30.17 in 10.0 mi Calm Calm - N/A   Clear
3:56 AM 45.0 °F 42.6 °F 23.0 °F 42% 30.15 in 10.0 mi SSW 4.6 mph - N/A   Clear
4:56 AM 35.1 °F 31.0 °F 23.0 °F 61% 30.17 in 10.0 mi SSE 4.6 mph - N/A   Clear
5:56 AM 39.0 °F - 21.0 °F 49% 30.18 in 10.0 mi Calm Calm - N/A   Clear
6:56 AM 39.0 °F 36.8 °F 19.0 °F 45% 30.21 in 10.0 mi SSW 3.5 mph - N/A   Partly Cloudy
7:56 AM 34.0 °F 29.8 °F 21.9 °F 61% 30.25 in 10.0 mi SE 4.6 mph - N/A   Scattered Clouds
8:56 AM 42.1 °F 40.2 °F 27.0 °F 55% 30.25 in 10.0 mi ENE 3.5 mph - N/A   Scattered Clouds
9:56 AM 51.1 °F - 19.0 °F 28% 30.22 in 10.0 mi SSE 8.1 mph - N/A   Scattered Clouds
10:56 AM 55.0 °F - 21.9 °F 28% 30.21 in 10.0 mi SW 4.6 mph - N/A   Partly Cloudy
11:56 AM 59.0 °F - 25.0 °F 27% 30.18 in 10.0 mi Calm Calm - N/A   Partly Cloudy
12:56 PM 60.1 °F - 35.1 °F 39% 30.15 in 10.0 mi West 4.6 mph - N/A   Clear
1:56 PM 63.0 °F - 32.0 °F 31% 30.09 in 10.0 mi West 4.6 mph - N/A   Scattered Clouds
2:56 PM 72.0 °F - 30.9 °F 22% 30.02 in 10.0 mi Variable 4.6 mph - N/A   Scattered Clouds
3:56 PM 75.0 °F - 18.0 °F 12% 29.97 in 10.0 mi Variable 3.5 mph - N/A   Scattered Clouds
4:56 PM 75.9 °F - 15.1 °F 10% 29.96 in 10.0 mi ENE 3.5 mph - N/A   Mostly Cloudy
5:56 PM 72.0 °F - 18.0 °F 13% 29.93 in 10.0 mi East 5.8 mph - N/A   Mostly Cloudy
6:56 PM 66.0 °F - 23.0 °F 20% 29.93 in 10.0 mi NE 3.5 mph - N/A   Mostly Cloudy
7:56 PM 59.0 °F - 36.0 °F 42% 29.96 in 10.0 mi SSW 4.6 mph - N/A   Clear
8:56 PM 53.1 °F - 25.0 °F 34% 29.94 in 10.0 mi East 5.8 mph - N/A   Clear
9:56 PM 52.0 °F - 21.9 °F 31% 29.92 in 10.0 mi ESE 8.1 mph - N/A   Clear
10:56 PM 55.9 °F - 18.0 °F 23% 29.89 in 10.0 mi East 6.9 mph - N/A   Clear
11:56 PM 59.0 °F - 21.0 °F 23% 29.86 in 10.0 mi WSW 3.5 mph - N/A   Clear